• Join FlightAware (Why Join?)
  • Login
  • US Flag GB Flag 
20:22 EST


 

Airport Tracker/Info


-or-


 

Live Flight TrackerFlight Track Log ✈ KAP528 ✈ 07-May-2013 ✈ KALB - KBOS

Flight Track Log - Related Links

Times and Time Zones

All times are in EDT time to prevent confusion due to time zone crossing. See the KAP528 flight status page for this flight to view local times or setup timezone preferences in your user account.

Time Position Orientation Groundspeed Altitude Reporting Facility
EDT Latitude Longitude Course Direction KTS MPH feet Rate Location/Type
18:38 42.7200 -73.7656 95° East 125 144 2,400  Level Boston Center
18:39 42.7164 -73.7144 95° East 140 161 3,300 738 Climbing Boston Center
18:40 42.7108 -73.6550 97° East 156 180 3,900 694 Climbing Boston Center
18:41 42.7008 -73.5956 103° East 158 182 4,700 744 Climbing Boston Center
18:42 42.6953 -73.5417 98° East 153 176 5,400 446 Climbing Boston Center
18:43 42.6872 -73.4881 102° East 145 167 5,600 99 Climbing Boston Center
18:44 42.6797 -73.4228 99° East 170 196 5,600 155 Level Boston Center
18:45 42.6739 -73.3664 98° East 169 194 5,900 417 Climbing Boston Center
18:46 42.6658 -73.3069 100° East 154 177 6,400 347 Climbing Boston Center
18:47 42.6581 -73.2503 101° East 155 178 6,600 42 Climbing Boston Center
18:48 42.6522 -73.1656 95° East 189 217 6,500 -42 Descending Boston Center
18:49 42.6486 -73.0922 94° East 189 217 6,500  Level Boston Center
18:50 42.6447 -73.0328 95° East 178 205 6,500  Level Boston Center
18:51 42.6389 -72.9678 97° East 178 205 6,500 -50 Level Boston Center
18:52 42.6350 -72.9000 94° East 178 205 6,400 -150 Descending Boston Center
18:53 42.6269 -72.8350 100° East 178 205 6,200 -200 Descending Boston Center
18:54 42.6189 -72.7703 100° East 178 205 6,000 -150 Descending Boston Center
18:55 42.6086 -72.7025 102° East 178 205 5,900 -150 Descending Boston Center
18:56 42.6003 -72.6347 99° East 178 205 5,700 -150 Descending Boston Center
18:57 42.5919 -72.5725 100° East 178 205 5,600 -91 Descending Boston Center
18:58 42.5817 -72.5050 102° East 178 205 5,500  Descending Boston Center
18:59 42.5714 -72.4261 100° East 178 205 5,600 50 Climbing Boston Center
19:00 42.5608 -72.3639 103° East 178 205 5,600  Level Boston Center
19:01 42.5544 -72.3133 100° East 173 199 5,600 50 Level Boston Center
19:02 42.5439 -72.2317 100° East 178 205 5,700 50 Climbing Boston Center
19:03 42.5356 -72.1753 101° East 178 205 5,700  Level Boston Center
19:04 42.5250 -72.1047 101° East 178 205 5,700  Level Boston Center
19:05 42.5164 -72.0458 101° East 178 205 5,700 -50 Level Boston Center
19:06 42.5058 -71.9725 101° East 178 205 5,600 -50 Descending Boston Center
19:07 42.4972 -71.9136 101° East 178 205 5,600 -50 Level Boston Center
19:08 42.4925 -71.8403 95° East 178 205 5,500 -200 Descending Boston Center
19:09 42.4964 -71.7783 85° East 178 205 5,200 -350 Descending Boston Center
19:10 42.5064 -71.6994 80° East 178 205 4,800 -300 Descending Boston Center
19:11 42.5122 -71.6403 82° East 178 205 4,600 -100 Descending Boston Center
19:12 42.5200 -71.5669 82° East 178 205 4,600  Level Boston Center
19:13 42.5258 -71.5075 82° East 178 205 4,600  Level Boston Center
19:13 42.5333 -71.4833 67° East 177 204 4,600  Level KA90
19:14 42.5333 -71.4167 90° East 179 206 4,600  Level KA90
19:15 42.5333 -71.3500 90° East 176 203 4,600  Level KA90
19:17 42.5500 -71.2667 75° East 176 203 4,600  Level KA90
19:18 42.5500 -71.2000 90° East 177 204 4,600  Level KA90
19:19 42.5667 -71.1333 71° East 178 205 4,600 -200 Level KA90
19:20 42.5500 -71.0833 114° Southeast 174 200 4,200 -579 Descending KA90
19:20 42.5333 -71.0333 114° Southeast 172 198 3,500 -857 Descending KA90
19:22 42.4833 -70.9833 144° Southeast 162 186 2,500 -850 Descending KA90
19:23 42.4500 -70.9667 160° South 155 178 1,700 -744 Descending KA90
19:24 42.4167 -70.9833 200° South 137 158 1,000 -661 Descending KA90
19:25 42.3833 -71.0000 200° South 106 122 300 -627 Descending KA90
19:27 42.3630 -71.0064 270° West  Level Estimated
19:34 42.3630 -71.0064 270° West  Level Estimated